Location: Knowlton
(51.2333°N, 1.2667°E)
Time: 23:18:09
(UTC+00:00)

ZACube-1 - Pass Details

Date: 28 November 2021
Orbit: 582 x 665 km, 97.6° (Epoch: 21 January)

Event Time Altitude Azimuth Distance (km) Brightness Sun altitude
Rises 16:54:36 0° 222° (SW) 2,835 ? -9.4°
Reaches altitude 10° 16:58:29 10° 259° (W) 1,960 ? -9.9°
Maximum altitude 16:59:39 11° 276° (W) 1,905 ? -10.1°
Drops below altitude 10° 17:00:50 10° 292° (WNW) 1,978 ? -10.3°
Sets 17:04:50 0° 328° (NNW) 2,917 ? -10.8°
